EW7099 Weather Reports


time (UTC)temp
C
wind
direction
speed
KPH
gust
KPH
rain 1hr
cm
rain 24hr
cm
rain mn
cm
humidity
%
barometer
mb
20260506194522 35 360 16.1 35.4 0.00 0.00 0.00 46 1007.7
20260506193020 35 234 19.3 45.1 0.00 0.00 0.00 47 1007.8
20260506191518 35 226 17.7 38.6 0.00 0.00 0.00 45 1008.0
20260506190017 35 180 22.5 41.8 0.00 0.00 0.00 48 1007.9
20260506184516 35 203 24.1 43.5 0.00 0.00 0.00 47 1008.0
20260506183016 35 176 22.5 40.2 0.00 0.00 0.00 47 1008.2
20260506181519 35 155 16.1 38.6 0.00 0.00 0.00 46 1008.4
20260506180015 35 190 17.7 40.2 0.00 0.00 0.00 46 1008.5
20260506174509 35 240 20.9 35.4 0.00 0.00 0.00 46 1008.7
20260506173007 35 182 17.7 35.4 0.00 0.00 0.00 51 1008.7
20260506171510 35 180 19.3 33.8 0.00 0.00 0.00 53 1008.8
20260506170003 35 172 19.3 32.2 0.00 0.00 0.00 54 1008.9
20260506164501 35 167 16.1 30.6 0.00 0.00 0.00 56 1009.1
20260506163101 34 144 14.5 25.7 0.00 0.00 0.00 58 1009.2
20260506161604 34 114 3.2 22.5 0.00 0.00 0.00 58 1009.3
20260506160057 34 228 9.7 20.9 0.00 0.00 0.00 50 1009.4
20260506154550 33 203 16.1 24.1 0.00 0.00 0.00 51 1009.4
20260506153046 32 188 11.3 20.9 0.00 0.00 0.00 55 1009.5
20260506151558 32 252 1.6 8.0 0.00 0.00 0.00 62 1009.6
20260506150036 31 262 6.4 14.5 0.00 0.00 0.00 65 1009.6
20260506144533 31 309 6.4 16.1 0.00 0.00 0.00 66 1009.7
20260506143042 30 306 0.0 6.4 0.00 0.00 0.00 71 1009.7
20260506141524 29 305 0.0 6.4 0.00 0.00 0.00 75 1009.8
20260506140032 28 306 0.0 1.6 0.00 0.00 0.00 79 1009.8
20260506134523 27 224 1.6 4.8 0.00 0.00 0.00 81 1009.8
20260506133024 26 224 1.6 6.4 0.00 0.00 0.00 83 1009.8
20260506131525 25 303 1.6 3.2 0.00 0.00 0.00 85 1009.6
20260506130018 25 302 1.6 11.3 0.00 0.00 0.00 86 1009.5
20260506124517 24 300 3.2 8.0 0.00 0.00 0.00 88 1009.3
20260506123017 24 296 0.0 0.0 0.00 0.00 0.00 88 1009.2
20260506121514 24 290 0.0 6.4 0.00 0.00 0.00 88 1009.2
20260506120014 24 325 0.0 0.0 0.00 0.00 0.00 87 1009.1
20260506114516 25 328 0.0 0.0 0.00 0.00 0.00 87 1009.0
20260506113013 25 328 0.0 0.0 0.00 0.00 0.00 87 1008.9
20260506111541 25 13 0.0 0.0 0.00 0.00 0.00 88 1008.7
20260506110048 25 13 0.0 0.0 0.00 0.00 0.00 88 1008.6
20260506104536 25 13 0.0 0.0 0.00 0.00 0.00 88 1008.4
20260506103035 25 159 0.0 0.0 0.00 0.00 0.00 87 1008.3
20260506101548 25 159 0.0 0.0 0.00 0.00 0.00 87 1008.2
20260506100032 25 159 0.0 0.0 0.00 0.00 0.00 87 1008.1
20260506094529 25 159 0.0 6.4 0.00 0.00 0.00 86 1008.1
20260506093027 26 346 0.0 0.0 0.00 0.00 0.00 85 1008.1
20260506091528 26 346 0.0 6.4 0.00 0.00 0.00 85 1008.1
20260506090025 26 326 3.2 4.8 0.00 0.00 0.00 85 1008.1
20260506084554 26 328 3.2 8.0 0.00 0.00 0.00 84 1008.2
20260506083053 26 327 0.0 0.0 0.00 0.00 0.00 83 1008.3
20260506081548 26 26 1.6 8.0 0.00 0.00 0.00 83 1008.6
20260506073046 27 173 0.0 3.2 0.00 0.00 0.00 83 1008.7
20260506071557 27 230 0.0 3.2 0.00 0.00 0.00 82 1008.9
20260506061537 27 292 3.2 9.7 0.00 0.00 0.00 81 1009.4
20260506044525 28 254 3.2 9.7 0.00 0.00 0.00 80 1009.6
20260506043021 28 257 3.2 9.7 0.00 0.00 0.00 80 1009.4
20260506041527 28 286 1.6 11.3 0.00 0.00 0.00 80 1009.3
20260506040046 28 265 0.0 11.3 0.00 0.00 0.00 79 1009.3
20260506034546 28 250 4.8 11.3 0.00 0.00 0.00 79 1009.2
20260506033039 28 234 1.6 8.0 0.00 0.00 0.00 79 1008.9
20260506031539 28 265 1.6 8.0 0.00 0.00 0.00 78 1008.8
20260506030036 28 230 3.2 9.7 0.00 0.00 0.00 78 1008.6
20260506024539 28 234 3.2 9.7 0.00 0.00 0.00 79 1008.3
20260506023002 28 225 1.6 9.7 0.00 0.00 0.00 79 1008.3
20260506021559 28 225 1.6 9.7 0.00 0.00 0.00 80 1008.2
20260506020053 28 235 1.6 9.7 0.00 0.00 0.00 80 1007.8
20260506014554 29 281 6.4 14.5 0.00 0.00 0.00 80 1007.6
20260506013044 29 246 8.0 19.3 0.00 0.00 0.00 80 1007.4
20260506011542 29 184 6.4 17.7 0.00 0.00 0.00 79 1007.2
20260506010034 30 161 9.7 17.7 0.00 0.00 0.00 77 1007.1
20260506004538 30 360 9.7 16.1 0.00 0.00 0.00 76 1006.9
20260506003030 30 210 9.7 17.7 0.00 0.00 0.00 75 1006.9
20260506001529 30 207 6.4 14.5 0.00 0.00 0.00 74 1006.8
20260506000035 31 161 12.9 20.9 0.00 0.00 0.00 72 1006.6
20260505234525 31 213 8.0 17.7 0.00 0.00 0.00 71 1006.6
20260505233024 31 176 9.7 22.5 0.00 0.00 0.00 70 1006.5
20260505231524 31 184 14.5 24.1 0.00 0.00 0.00 69 1006.4
20260505230021 32 221 12.9 24.1 0.00 0.00 0.00 67 1006.4
20260505224533 32 209 12.9 24.1 0.00 0.00 0.00 66 1006.3
20260505223028 32 208 12.9 22.5 0.00 0.00 0.00 66 1006.3
20260505221520 33 210 9.7 22.5 0.00 0.00 0.00 65 1006.3
20260505220027 33 194 9.7 22.5 0.00 0.00 0.00 66 1006.3
20260505214527 33 145 14.5 29.0 0.00 0.00 0.00 66 1006.3
20260505213021 33 160 11.3 25.7 0.00 0.00 0.00 65 1006.4
20260505211513 33 167 14.5 29.0 0.00 0.00 0.00 64 1006.5
20260505210011 34 136 16.1 29.0 0.00 0.00 0.00 60 1006.4
20260505204515 35 169 14.5 22.5 0.00 0.00 0.00 52 1006.5
20260505203008 35 200 16.1 22.5 0.00 0.00 0.00 50 1006.5
20260505201505 35 178 12.9 17.7 0.00 0.00 0.00 51 1006.8